Flag for United Kingdom Weather past 2 weeks in Cardiff, Wales, United Kingdom

Now
55 °F

Mostly cloudy.


Feels Like: 51 °F
Forecast: 51 / 63 °F
Wind: 20 mph from West

Location: Wales Airport

Current Time: Jul 28, 2015 at 2:44:17 AM

Latest Report: Jul 28, 2015 at 2:20 AM


Visibility: N/A

Pressure: 29.68 "Hg

Humidity: 88%

Dew point: 52 °F

Location of CardiffLocation

Historic Weather in Cardiff — Graph

°F

Cardiff temperature yesterday

Maximum temperature yesterday: 61 °F (at 12:50 PM)
Minimum temperature yesterday: 57 °F (at 8:50 AM)
Average temperature yesterday: 59 °F

Past Weeks' High & Low Weather Summary

 TemperatureHumidityPressure
High73 °F (Jul 16, 3:50 PM)100% (Jul 13, 1:20 AM)30.12 "Hg (Jul 13, 1:20 AM)
Low50 °F (Jul 25, 5:50 AM)52% (Jul 19, 3:20 PM)29.42 "Hg (Jul 26, 5:20 PM)
Average60 °F84%29.90 "Hg
* Reported Jul 13 1:20 AM — Jul 28 1:20 AM, Cardiff, Weather by CustomWeather, © 2015

Note: Actual official high and low records may vary slightly from our data, if they occured in-between our weather recording intervals... More about our weather records

Advertising

Cardiff weather history for previous 24 hours

 ConditionsComfort  
Time TempWeatherWind HumidityBarometerVisibility
1:20 AM
Tue, Jul 28
55 °FMostly cloudy.18 mph88%29.68 "HgN/A
12:50 AM57 °FMostly cloudy.17 mph82%29.68 "HgN/A
12:20 AM57 °FLight rain. Mostly cloudy.18 mph88%29.68 "HgN/A
11:50 PM
Mon, Jul 27
57 °FLight rain. Mostly cloudy.18 mph82%29.68 "HgN/A
10:20 PM59 °FPassing clouds.18 mph82%29.65 "HgN/A
9:50 PM59 °FMostly cloudy.20 mph82%29.65 "HgN/A
9:20 PM59 °FOvercast.18 mph88%29.65 "HgN/A
8:50 PM57 °FRain. Mostly cloudy.20 mph94%29.65 "Hg2 mi
8:20 PM57 °FLight rain. Low clouds.22 mph94%29.62 "Hg4 mi
7:50 PM59 °FDrizzle. Low clouds.23 mph88%29.62 "Hg1 mi
7:20 PM59 °FPartly sunny.22 mph88%29.62 "Hg5 mi
6:50 PM59 °FSprinkles. Partly sunny.21 mph88%29.62 "Hg4 mi
6:20 PM59 °FSprinkles. Partly sunny.22 mph82%29.62 "Hg4 mi
5:50 PM59 °FPartly sunny.20 mph82%29.62 "HgN/A
5:20 PM59 °FPartly sunny.21 mph82%29.62 "HgN/A
4:50 PM61 °FPartly sunny.22 mph77%29.62 "HgN/A
4:20 PM61 °FPartly sunny.21 mph77%29.62 "HgN/A
3:50 PM61 °FBroken clouds.20 mph77%29.62 "HgN/A
3:20 PM61 °FBroken clouds.18 mph77%29.59 "HgN/A
2:50 PM61 °FBroken clouds.18 mph77%29.59 "HgN/A
2:20 PM61 °FPartly sunny.18 mph77%29.59 "HgN/A
1:50 PM61 °FBroken clouds.18 mph77%29.59 "HgN/A
1:20 PM61 °FBroken clouds.20 mph77%29.59 "HgN/A
12:50 PM61 °FPartly sunny.17 mph77%29.56 "HgN/A
12:20 PM59 °FPartly sunny.20 mph88%29.56 "HgN/A
11:50 AM59 °FSprinkles. Scattered clouds.18 mph82%29.56 "HgN/A
11:20 AM59 °FSprinkles. Broken clouds.16 mph82%29.56 "HgN/A
10:50 AM59 °FMostly cloudy.13 mph88%29.56 "HgN/A
10:20 AM57 °FLight rain. Partly sunny.16 mph94%29.56 "HgN/A
9:50 AM57 °FLight rain. Partly sunny.16 mph94%29.53 "Hg5 mi
9:20 AM59 °FLight rain. Partly sunny.16 mph88%29.53 "HgN/A
8:50 AM57 °FSprinkles. Partly sunny.20 mph94%29.53 "HgN/A
8:20 AM59 °FBroken clouds.17 mph88%29.50 "HgN/A
7:50 AM59 °FSprinkles. Broken clouds.17 mph94%29.50 "Hg4 mi
7:20 AM59 °FRain showers. Broken clouds.16 mph94%29.50 "HgN/A
6:50 AM59 °FPartly sunny.20 mph94%29.47 "HgN/A
6:20 AM59 °FPassing clouds.20 mph94%29.47 "HgN/A
5:50 AM59 °FMostly cloudy.18 mph88%29.47 "HgN/A
5:20 AM59 °FMostly cloudy.20 mph88%29.47 "HgN/A
4:50 AM59 °FOvercast.21 mph94%29.47 "HgN/A
4:20 AM59 °FOvercast.20 mph88%29.47 "HgN/A
3:50 AM59 °FOvercast.20 mph94%29.47 "HgN/A
3:20 AM59 °FOvercast.20 mph94%29.47 "HgN/A
2:50 AM59 °FOvercast.18 mph94%29.45 "HgN/A
2:20 AM59 °FOvercast.21 mph94%29.45 "Hg5 mi
Weather by CustomWeather, © 2015

See weather overviewHow to use our weather pages